| time (UTC) | temp F | wind direction | speed knots | gust knots | rain 1hr in | rain 24hr in | rain mn in | humidity % | barometer mb |
| 20260831052955 | 67 | 127 | 2.6 | 11.3 | 0.00 | 0.00 | 0.00 | 75 | 1027.5 |
| 20260831052507 | 67 | 111 | 3.5 | 11.3 | 0.00 | 0.00 | 0.00 | 75 | 1027.5 |
| 20260831051956 | 67 | 131 | 4.3 | 11.3 | 0.00 | 0.00 | 0.00 | 74 | 1027.5 |
| 20260831051459 | 68 | 107 | 4.3 | 12.2 | 0.00 | 0.00 | 0.00 | 74 | 1027.5 |
| 20260831050952 | 68 | 114 | 4.3 | 12.2 | 0.00 | 0.00 | 0.00 | 73 | 1027.6 |
| 20260831050712 | 68 | 112 | 3.5 | 11.3 | 0.00 | 0.00 | 0.00 | 73 | 1027.6 |
| 20260831050438 | 69 | 149 | 3.5 | 9.6 | 0.00 | 0.00 | 0.00 | 73 | 1027.6 |
| 20260831045453 | 69 | 112 | 3.5 | 8.7 | 0.00 | 0.00 | 0.00 | 73 | 1027.7 |
| 20260831044953 | 69 | 129 | 3.5 | 9.6 | 0.00 | 0.00 | 0.00 | 73 | 1027.7 |
| 20260831044451 | 69 | 103 | 3.5 | 11.3 | 0.00 | 0.00 | 0.00 | 72 | 1027.8 |
| 20260831043950 | 69 | 95 | 4.3 | 11.3 | 0.00 | 0.00 | 0.00 | 71 | 1027.7 |
| 20260831043451 | 69 | 89 | 4.3 | 12.2 | 0.00 | 0.00 | 0.00 | 70 | 1027.7 |
| 20260831042951 | 70 | 130 | 4.3 | 12.2 | 0.00 | 0.00 | 0.00 | 69 | 1027.7 |
| 20260831042724 | 70 | 114 | 4.3 | 11.3 | 0.00 | 0.00 | 0.00 | 69 | 1027.8 |
| 20260831041948 | 70 | 113 | 4.3 | 11.3 | 0.00 | 0.00 | 0.00 | 69 | 1027.8 |
| 20260831041451 | 70 | 97 | 5.2 | 11.3 | 0.00 | 0.00 | 0.00 | 68 | 1027.8 |
| 20260831041217 | 70 | 131 | 5.2 | 10.4 | 0.00 | 0.00 | 0.00 | 68 | 1027.8 |
| 20260831040710 | 70 | 148 | 3.5 | 9.6 | 0.00 | 0.00 | 0.00 | 68 | 1027.8 |
| 20260831040208 | 70 | 122 | 3.5 | 9.6 | 0.00 | 0.00 | 0.00 | 69 | 1027.9 |
| 20260831035451 | 70 | 136 | 3.5 | 9.6 | 0.00 | 0.00 | 0.00 | 70 | 1027.9 |
| 20260831034935 | 70 | 165 | 3.5 | 10.4 | 0.00 | 0.00 | 0.00 | 69 | 1027.9 |
| 20260831034435 | 70 | 114 | 4.3 | 10.4 | 0.00 | 0.00 | 0.00 | 69 | 1028.0 |
| 20260831034139 | 71 | 65 | 4.3 | 10.4 | 0.00 | 0.00 | 0.00 | 68 | 1028.0 |
| 20260831034022 | 71 | 110 | 4.3 | 10.4 | 0.00 | 0.00 | 0.00 | 69 | 1028.0 |
| 20260831032929 | 71 | 118 | 3.5 | 13.9 | 0.00 | 0.00 | 0.00 | 68 | 1028.0 |
| 20260831032427 | 71 | 110 | 4.3 | 13.9 | 0.00 | 0.00 | 0.00 | 69 | 1028.0 |
| 20260831031927 | 71 | 105 | 5.2 | 13.9 | 0.00 | 0.00 | 0.00 | 69 | 1028.0 |
| 20260831031427 | 71 | 85 | 5.2 | 13.9 | 0.00 | 0.00 | 0.00 | 69 | 1028.1 |
| 20260831030923 | 71 | 115 | 4.3 | 11.3 | 0.00 | 0.00 | 0.00 | 68 | 1028.2 |
| 20260831030423 | 71 | 107 | 3.5 | 10.4 | 0.00 | 0.00 | 0.00 | 68 | 1028.2 |
| 20260831025924 | 72 | 105 | 3.5 | 11.3 | 0.00 | 0.00 | 0.00 | 67 | 1028.3 |
| 20260831025645 | 72 | 106 | 3.5 | 11.3 | 0.00 | 0.00 | 0.00 | 66 | 1028.3 |
| 20260831024922 | 73 | 105 | 3.5 | 10.4 | 0.00 | 0.00 | 0.00 | 66 | 1028.3 |
| 20260831024420 | 72 | 31 | 5.2 | 13.0 | 0.00 | 0.00 | 0.00 | 68 | 1028.3 |
| 20260831023921 | 72 | 126 | 5.2 | 13.0 | 0.00 | 0.00 | 0.00 | 67 | 1028.4 |
| 20260831023643 | 72 | 122 | 5.2 | 13.0 | 0.00 | 0.00 | 0.00 | 66 | 1028.4 |
| 20260831023155 | 73 | 139 | 5.2 | 13.0 | 0.00 | 0.00 | 0.00 | 65 | 1028.4 |
| 20260831022419 | 73 | 119 | 4.3 | 11.3 | 0.00 | 0.00 | 0.00 | 61 | 1028.4 |
| 20260831021919 | 73 | 129 | 3.5 | 11.3 | 0.00 | 0.00 | 0.00 | 59 | 1028.4 |
| 20260831021416 | 73 | 108 | 3.5 | 9.6 | 0.00 | 0.00 | 0.00 | 60 | 1028.4 |
| 20260831020917 | 73 | 121 | 3.5 | 9.6 | 0.00 | 0.00 | 0.00 | 60 | 1028.4 |
| 20260831020657 | 73 | 129 | 3.5 | 9.6 | 0.00 | 0.00 | 0.00 | 59 | 1028.5 |
| 20260831020137 | 73 | 125 | 3.5 | 11.3 | 0.00 | 0.00 | 0.00 | 57 | 1028.5 |
| 20260831015412 | 74 | 122 | 3.5 | 12.2 | 0.00 | 0.00 | 0.00 | 57 | 1028.5 |
| 20260831015143 | 74 | 126 | 4.3 | 12.2 | 0.00 | 0.00 | 0.00 | 56 | 1028.6 |
| 20260831014407 | 74 | 139 | 3.5 | 11.3 | 0.00 | 0.00 | 0.00 | 57 | 1028.6 |
| 20260831013905 | 73 | 118 | 2.6 | 7.8 | 0.00 | 0.00 | 0.00 | 57 | 1028.6 |
| 20260831013622 | 73 | 114 | 2.6 | 7.8 | 0.00 | 0.00 | 0.00 | 58 | 1028.7 |
| 20260831012904 | 74 | 112 | 2.6 | 7.8 | 0.00 | 0.00 | 0.00 | 57 | 1028.7 |
| 20260831012344 | 74 | 206 | 2.6 | 8.7 | 0.00 | 0.00 | 0.00 | 57 | 1028.7 |
| 20260831011845 | 74 | 139 | 2.6 | 7.0 | 0.00 | 0.00 | 0.00 | 55 | 1028.8 |
| 20260831011329 | 75 | 124 | 2.6 | 8.7 | 0.00 | 0.00 | 0.00 | 54 | 1028.8 |
| 20260831010829 | 75 | 125 | 2.6 | 8.7 | 0.00 | 0.00 | 0.00 | 53 | 1028.9 |
| 20260831010312 | 76 | 122 | 2.6 | 8.7 | 0.00 | 0.00 | 0.00 | 53 | 1028.9 |
| 20260831005811 | 75 | 57 | 2.6 | 7.0 | 0.00 | 0.00 | 0.00 | 55 | 1028.9 |
| 20260831005310 | 75 | 112 | 2.6 | 7.8 | 0.00 | 0.00 | 0.00 | 55 | 1028.9 |
| 20260831004807 | 75 | 126 | 2.6 | 7.8 | 0.00 | 0.00 | 0.00 | 54 | 1029.0 |
| 20260831004306 | 75 | 136 | 1.7 | 6.1 | 0.00 | 0.00 | 0.00 | 56 | 1029.0 |
| 20260831003758 | 74 | 122 | 1.7 | 6.1 | 0.00 | 0.00 | 0.00 | 56 | 1029.0 |
| 20260831003258 | 74 | 161 | 1.7 | 4.3 | 0.00 | 0.00 | 0.00 | 58 | 1029.1 |
| 20260831002754 | 74 | 103 | 1.7 | 4.3 | 0.00 | 0.00 | 0.00 | 57 | 1029.2 |
| 20260831002252 | 74 | 201 | 1.7 | 9.6 | 0.00 | 0.00 | 0.00 | 57 | 1029.2 |
| 20260831001750 | 74 | 115 | 2.6 | 9.6 | 0.00 | 0.00 | 0.00 | 57 | 1029.3 |
| 20260831001251 | 74 | 104 | 1.7 | 8.7 | 0.00 | 0.00 | 0.00 | 59 | 1029.3 |
| 20260831000746 | 73 | 120 | 1.7 | 4.3 | 0.00 | 0.00 | 0.00 | 59 | 1029.3 |
| 20260831000249 | 73 | 104 | 1.7 | 5.2 | 0.00 | 0.00 | 0.00 | 59 | 1029.4 |
| 20260831000003 | 73 | 113 | 1.7 | 5.2 | 0.00 | 0.00 | 0.00 | 61 | 1029.5 |
| 20260830235238 | 72 | 124 | 1.7 | 5.2 | 0.00 | 0.00 | 0.00 | 61 | 1029.5 |
| 20260830234735 | 72 | 124 | 2.6 | 8.7 | 0.00 | 0.00 | 0.00 | 62 | 1029.6 |
| 20260830234238 | 71 | 167 | 3.5 | 8.7 | 0.00 | 0.00 | 0.00 | 62 | 1029.5 |
| 20260830233707 | 71 | 193 | 3.5 | 7.8 | 0.00 | 0.00 | 0.00 | 62 | 1029.6 |
| 20260830233426 | 71 | 165 | 3.5 | 8.7 | 0.00 | 0.00 | 0.00 | 63 | 1029.6 |
| 20260830232650 | 71 | 127 | 2.6 | 8.7 | 0.00 | 0.00 | 0.00 | 62 | 1029.7 |
| 20260830232127 | 71 | 106 | 2.6 | 5.2 | 0.00 | 0.00 | 0.00 | 64 | 1029.6 |
| 20260830231624 | 70 | 189 | 2.6 | 8.7 | 0.00 | 0.00 | 0.00 | 64 | 1029.6 |
| 20260830231137 | 69 | 144 | 2.6 | 8.7 | 0.00 | 0.00 | 0.00 | 66 | 1029.6 |
| 20260830230621 | 69 | 180 | 2.6 | 8.7 | 0.00 | 0.00 | 0.00 | 67 | 1029.6 |
| 20260830230124 | 68 | 221 | 2.6 | 7.0 | 0.00 | 0.00 | 0.00 | 69 | 1029.6 |
| 20260830225620 | 67 | 206 | 2.6 | 7.8 | 0.00 | 0.00 | 0.00 | 72 | 1029.6 |
| 20260830225340 | 67 | 175 | 1.7 | 7.8 | 0.00 | 0.00 | 0.00 | 73 | 1029.6 |
| 20260830224619 | 66 | 175 | 1.7 | 7.0 | 0.00 | 0.00 | 0.00 | 75 | 1029.6 |
| 20260830224124 | 65 | 222 | 1.7 | 6.1 | 0.00 | 0.00 | 0.00 | 77 | 1029.6 |
| 20260830223614 | 65 | 222 | 1.7 | 6.1 | 0.00 | 0.00 | 0.00 | 78 | 1029.7 |
| 20260830223116 | 64 | 214 | 1.7 | 5.2 | 0.00 | 0.00 | 0.00 | 79 | 1029.7 |
| 20260830222613 | 63 | 209 | 1.7 | 4.3 | 0.00 | 0.00 | 0.00 | 81 | 1029.7 |
| 20260830222111 | 62 | 248 | 0.9 | 4.3 | 0.00 | 0.00 | 0.00 | 82 | 1029.7 |
| 20260830222045 | 61 | 239 | 1.7 | 5.2 | 0.00 | 0.00 | 0.00 | 85 | 1029.5 |
| 20260830221709 | 62 | 185 | 1.7 | 3.5 | 0.00 | 0.00 | 0.00 | 83 | 1029.6 |
| 20260830220609 | 60 | 252 | 1.7 | 5.2 | 0.00 | 0.00 | 0.00 | 86 | 1029.5 |
| 20260830220111 | 60 | 254 | 1.7 | 3.5 | 0.00 | 0.00 | 0.00 | 87 | 1029.4 |
| 20260830215803 | 59 | 254 | 1.7 | 4.3 | 0.00 | 0.00 | 0.00 | 88 | 1029.4 |
| 20260830215019 | 58 | 254 | 1.7 | 5.2 | 0.00 | 0.00 | 0.00 | 88 | 1029.4 |
| 20260830214451 | 58 | 216 | 1.7 | 3.5 | 0.00 | 0.00 | 0.00 | 89 | 1029.4 |
| 20260830213928 | 57 | 216 | 1.7 | 2.6 | 0.00 | 0.00 | 0.00 | 89 | 1029.4 |
| 20260830213402 | 57 | 193 | 0.9 | 2.6 | 0.00 | 0.00 | 0.00 | 89 | 1029.4 |
| 20260830212832 | 56 | 227 | 0.9 | 2.6 | 0.00 | 0.00 | 0.00 | 89 | 1029.3 |
| 20260830212306 | 56 | 227 | 0.9 | 3.5 | 0.00 | 0.00 | 0.00 | 89 | 1029.3 |
| 20260830211740 | 56 | 235 | 0.9 | 3.5 | 0.00 | 0.00 | 0.00 | 89 | 1029.3 |
| 20260830211214 | 56 | 216 | 0.0 | 2.6 | 0.00 | 0.00 | 0.00 | 89 | 1029.3 |
| 20260830210702 | 56 | 216 | 0.0 | 2.6 | 0.00 | 0.00 | 0.00 | 89 | 1029.2 |
| 20260830210429 | 56 | 216 | 0.0 | 2.6 | 0.00 | 0.00 | 0.00 | 89 | 1029.3 |
| 20260830205632 | 55 | 216 | 0.0 | 2.6 | 0.00 | 0.00 | 0.00 | 89 | 1029.3 |
| 20260830205107 | 55 | 216 | 0.0 | 1.7 | 0.00 | 0.00 | 0.00 | 89 | 1029.2 |
| 20260830204539 | 55 | 216 | 0.0 | 1.7 | 0.00 | 0.00 | 0.00 | 89 | 1029.2 |
| 20260830204234 | 55 | 217 | 0.0 | 0.9 | 0.00 | 0.00 | 0.00 | 88 | 1029.1 |
| 20260830203444 | 55 | 217 | 0.0 | 1.7 | 0.00 | 0.00 | 0.00 | 88 | 1029.0 |
| 20260830202926 | 55 | 217 | 0.0 | 1.7 | 0.00 | 0.00 | 0.00 | 88 | 1028.9 |
| 20260830202428 | 55 | 217 | 0.0 | 2.6 | 0.00 | 0.00 | 0.00 | 88 | 1028.9 |
| 20260830202125 | 55 | 217 | 0.0 | 2.6 | 0.00 | 0.00 | 0.00 | 88 | 1028.8 |
| 20260830201337 | 55 | 217 | 0.0 | 1.7 | 0.00 | 0.00 | 0.00 | 88 | 1028.7 |
| 20260830200814 | 55 | 217 | 0.0 | 1.7 | 0.00 | 0.00 | 0.00 | 88 | 1028.6 |
| 20260830200249 | 55 | 217 | 0.0 | 1.7 | 0.00 | 0.00 | 0.00 | 87 | 1028.5 |
| 20260830195725 | 55 | 217 | 0.0 | 2.6 | 0.00 | 0.00 | 0.00 | 88 | 1028.4 |
| 20260830195158 | 55 | 217 | 0.9 | 2.6 | 0.00 | 0.00 | 0.00 | 88 | 1028.4 |
| 20260830194638 | 55 | 220 | 0.9 | 3.5 | 0.00 | 0.00 | 0.00 | 88 | 1028.4 |
| 20260830194140 | 55 | 220 | 0.0 | 3.5 | 0.00 | 0.00 | 0.00 | 88 | 1028.3 |
| 20260830193613 | 55 | 218 | 0.0 | 1.7 | 0.00 | 0.00 | 0.00 | 88 | 1028.3 |
| 20260830193049 | 55 | 218 | 0.0 | 2.6 | 0.00 | 0.00 | 0.00 | 88 | 1028.3 |
| 20260830192523 | 55 | 218 | 0.0 | 2.6 | 0.00 | 0.00 | 0.00 | 88 | 1028.3 |
| 20260830192218 | 55 | 218 | 0.9 | 3.5 | 0.00 | 0.00 | 0.00 | 88 | 1028.2 |
| 20260830191440 | 55 | 218 | 0.9 | 3.5 | 0.00 | 0.00 | 0.00 | 88 | 1028.2 |
| 20260830190954 | 55 | 164 | 0.9 | 2.6 | 0.00 | 0.00 | 0.00 | 88 | 1028.2 |
| 20260830190434 | 55 | 164 | 0.9 | 4.3 | 0.00 | 0.00 | 0.00 | 88 | 1028.2 |
| 20260830185934 | 55 | 164 | 0.9 | 4.3 | 0.00 | 0.00 | 0.00 | 88 | 1028.2 |
| 20260830185659 | 55 | 224 | 0.9 | 2.6 | 0.00 | 0.00 | 0.00 | 88 | 1028.2 |
| 20260830184932 | 55 | 242 | 0.9 | 3.5 | 0.00 | 0.00 | 0.00 | 88 | 1028.1 |
| 20260830184432 | 55 | 242 | 0.9 | 3.5 | 0.00 | 0.00 | 0.00 | 89 | 1028.1 |
| 20260830183930 | 55 | 229 | 0.9 | 2.6 | 0.00 | 0.00 | 0.00 | 88 | 1028.1 |
| 20260830183428 | 54 | 212 | 0.9 | 2.6 | 0.00 | 0.00 | 0.00 | 88 | 1028.1 |
| 20260830182928 | 54 | 212 | 0.9 | 1.7 | 0.00 | 0.00 | 0.00 | 88 | 1028.0 |
| 20260830182428 | 54 | 212 | 0.9 | 2.6 | 0.00 | 0.00 | 0.00 | 88 | 1028.1 |
| 20260830181927 | 54 | 212 | 0.9 | 2.6 | 0.00 | 0.00 | 0.00 | 88 | 1028.0 |
| 20260830181424 | 54 | 212 | 0.0 | 2.6 | 0.00 | 0.00 | 0.00 | 88 | 1028.0 |
| 20260830180924 | 54 | 212 | 0.9 | 2.6 | 0.00 | 0.00 | 0.00 | 88 | 1027.9 |
| 20260830180424 | 54 | 212 | 0.9 | 2.6 | 0.00 | 0.00 | 0.00 | 88 | 1028.0 |
| 20260830175923 | 54 | 212 | 0.9 | 2.6 | 0.00 | 0.00 | 0.00 | 87 | 1028.0 |
| 20260830175424 | 54 | 216 | 0.9 | 2.6 | 0.00 | 0.00 | 0.00 | 87 | 1028.0 |
| 20260830174926 | 54 | 216 | 0.9 | 2.6 | 0.00 | 0.00 | 0.00 | 87 | 1028.0 |
| 20260830174359 | 54 | 216 | 0.9 | 2.6 | 0.00 | 0.00 | 0.00 | 87 | 1027.9 |
| 20260830173900 | 54 | 216 | 0.9 | 2.6 | 0.00 | 0.00 | 0.00 | 87 | 1027.9 |
| 20260830173358 | 54 | 200 | 0.9 | 2.6 | 0.00 | 0.00 | 0.00 | 87 | 1027.9 |
| 20260830172858 | 54 | 200 | 0.9 | 2.6 | 0.00 | 0.00 | 0.00 | 86 | 1028.0 |
| 20260830172358 | 54 | 200 | 0.9 | 2.6 | 0.00 | 0.00 | 0.00 | 86 | 1028.0 |
| 20260830171856 | 54 | 200 | 0.0 | 2.6 | 0.00 | 0.00 | 0.00 | 87 | 1028.0 |
| 20260830171354 | 55 | 199 | 0.0 | 2.6 | 0.00 | 0.00 | 0.00 | 86 | 1028.0 |
| 20260830170854 | 55 | 199 | 0.9 | 2.6 | 0.00 | 0.00 | 0.00 | 86 | 1028.0 |
| 20260830170350 | 55 | 199 | 0.9 | 1.7 | 0.00 | 0.00 | 0.00 | 86 | 1028.1 |
| 20260830165849 | 55 | 199 | 0.9 | 1.7 | 0.00 | 0.00 | 0.00 | 86 | 1028.0 |
| 20260830165350 | 55 | 199 | 0.9 | 2.6 | 0.00 | 0.00 | 0.00 | 86 | 1028.0 |
| 20260830164850 | 55 | 199 | 0.9 | 3.5 | 0.00 | 0.00 | 0.00 | 86 | 1028.0 |
| 20260830164841 | 55 | 198 | 0.9 | 3.5 | 0.00 | 0.00 | 0.00 | 86 | 1028.1 |
| 20260830163848 | 55 | 197 | 0.9 | 3.5 | 0.00 | 0.00 | 0.00 | 86 | 1028.2 |
| 20260830163350 | 55 | 197 | 0.9 | 3.5 | 0.00 | 0.00 | 0.00 | 86 | 1028.2 |
| 20260830162839 | 55 | 199 | 0.9 | 3.5 | 0.00 | 0.00 | 0.00 | 86 | 1028.2 |
| 20260830162324 | 55 | 199 | 1.7 | 3.5 | 0.00 | 0.00 | 0.00 | 86 | 1028.2 |
| 20260830161823 | 55 | 165 | 0.9 | 3.5 | 0.00 | 0.00 | 0.00 | 86 | 1028.3 |
| 20260830161322 | 55 | 165 | 0.9 | 3.5 | 0.00 | 0.00 | 0.00 | 86 | 1028.4 |
| 20260830160819 | 55 | 229 | 0.9 | 2.6 | 0.00 | 0.00 | 0.00 | 85 | 1028.4 |
| 20260830160317 | 56 | 229 | 0.9 | 2.6 | 0.00 | 0.00 | 0.00 | 85 | 1028.4 |
| 20260830155816 | 56 | 238 | 0.9 | 1.7 | 0.00 | 0.00 | 0.00 | 86 | 1028.4 |
| 20260830155317 | 56 | 238 | 0.9 | 2.6 | 0.00 | 0.00 | 0.00 | 86 | 1028.5 |
| 20260830154814 | 56 | 238 | 0.9 | 2.6 | 0.00 | 0.00 | 0.00 | 86 | 1028.5 |
| 20260830154312 | 56 | 243 | 0.9 | 4.3 | 0.00 | 0.00 | 0.00 | 86 | 1028.6 |
| 20260830153811 | 56 | 241 | 0.9 | 4.3 | 0.00 | 0.00 | 0.00 | 86 | 1028.5 |
| 20260830153312 | 56 | 214 | 0.9 | 3.5 | 0.00 | 0.00 | 0.00 | 86 | 1028.6 |
| 20260830153028 | 56 | 214 | 0.9 | 3.5 | 0.00 | 0.00 | 0.00 | 86 | 1028.6 |
| 20260830152307 | 56 | 215 | 0.9 | 3.5 | 0.00 | 0.00 | 0.00 | 86 | 1028.6 |
| 20260830151810 | 56 | 202 | 0.9 | 3.5 | 0.00 | 0.00 | 0.00 | 85 | 1028.7 |
| 20260830151241 | 56 | 204 | 0.9 | 3.5 | 0.00 | 0.00 | 0.00 | 86 | 1028.7 |
| 20260830150722 | 56 | 200 | 0.0 | 1.7 | 0.00 | 0.00 | 0.00 | 86 | 1028.8 |
| 20260830150223 | 57 | 200 | 0.9 | 1.7 | 0.00 | 0.00 | 0.00 | 86 | 1028.8 |
| 20260830145716 | 57 | 200 | 0.9 | 1.7 | 0.00 | 0.00 | 0.00 | 85 | 1028.8 |
| 20260830145213 | 57 | 200 | 0.0 | 1.7 | 0.00 | 0.00 | 0.00 | 85 | 1028.9 |
| 20260830144712 | 57 | 200 | 0.0 | 1.7 | 0.00 | 0.00 | 0.00 | 85 | 1028.9 |
| 20260830144210 | 57 | 200 | 0.0 | 0.9 | 0.00 | 0.00 | 0.00 | 85 | 1029.0 |
| 20260830143710 | 57 | 200 | 0.0 | 2.6 | 0.00 | 0.00 | 0.00 | 85 | 1029.0 |
| 20260830143218 | 57 | 200 | 0.0 | 2.6 | 0.00 | 0.00 | 0.00 | 85 | 1029.0 |
| 20260830142704 | 57 | 199 | 0.9 | 1.7 | 0.00 | 0.00 | 0.00 | 84 | 1028.9 |
| 20260830142203 | 57 | 199 | 0.0 | 1.7 | 0.00 | 0.00 | 0.00 | 84 | 1028.9 |
| 20260830141656 | 58 | 200 | 0.0 | 0.9 | 0.00 | 0.00 | 0.00 | 84 | 1029.0 |
| 20260830141153 | 58 | 199 | 0.0 | 0.9 | 0.00 | 0.00 | 0.00 | 83 | 1029.0 |
| 20260830140652 | 58 | 199 | 0.0 | 0.9 | 0.00 | 0.00 | 0.00 | 83 | 1029.1 |
| 20260830140154 | 58 | 199 | 0.0 | 0.9 | 0.00 | 0.00 | 0.00 | 84 | 1029.0 |
| 20260830135625 | 58 | 199 | 0.0 | 0.9 | 0.00 | 0.00 | 0.00 | 84 | 1029.0 |
| 20260830135106 | 58 | 199 | 0.0 | 1.7 | 0.00 | 0.00 | 0.00 | 84 | 1029.1 |
| 20260830134607 | 58 | 199 | 0.0 | 1.7 | 0.00 | 0.00 | 0.00 | 84 | 1029.1 |
| 20260830134103 | 58 | 199 | 0.0 | 1.7 | 0.00 | 0.00 | 0.00 | 83 | 1029.0 |
| 20260830133604 | 59 | 199 | 0.0 | 1.7 | 0.00 | 0.00 | 0.00 | 83 | 1029.0 |
| 20260830133105 | 59 | 199 | 0.0 | 1.7 | 0.00 | 0.00 | 0.00 | 83 | 1028.9 |
| 20260830132603 | 59 | 199 | 0.0 | 2.6 | 0.00 | 0.00 | 0.00 | 83 | 1028.9 |
| 20260830132104 | 59 | 200 | 0.0 | 2.6 | 0.00 | 0.00 | 0.00 | 83 | 1028.8 |
| 20260830131605 | 59 | 180 | 0.0 | 0.9 | 0.00 | 0.00 | 0.00 | 83 | 1028.8 |
| 20260830131327 | 59 | 180 | 0.0 | 0.9 | 0.00 | 0.00 | 0.00 | 82 | 1028.8 |
| 20260830130600 | 59 | 180 | 0.0 | 1.7 | 0.00 | 0.00 | 0.00 | 82 | 1028.8 |
| 20260830130112 | 59 | 180 | 0.0 | 1.7 | 0.00 | 0.00 | 0.00 | 82 | 1028.9 |
| 20260830125554 | 59 | 180 | 0.0 | 2.6 | 0.00 | 0.00 | 0.00 | 82 | 1029.0 |
| 20260830125052 | 59 | 180 | 0.0 | 2.6 | 0.00 | 0.00 | 0.00 | 82 | 1028.9 |
| 20260830124550 | 60 | 180 | 0.9 | 2.6 | 0.00 | 0.00 | 0.00 | 82 | 1028.9 |
| 20260830124052 | 60 | 180 | 0.9 | 2.6 | 0.00 | 0.00 | 0.00 | 82 | 1028.9 |
| 20260830123523 | 60 | 180 | 0.0 | 2.6 | 0.00 | 0.00 | 0.00 | 81 | 1028.9 |
| 20260830123004 | 60 | 180 | 0.0 | 2.6 | 0.00 | 0.00 | 0.00 | 81 | 1028.9 |
| 20260830122505 | 60 | 180 | 0.9 | 2.6 | 0.00 | 0.00 | 0.00 | 82 | 1029.0 |
| 20260830121957 | 60 | 180 | 0.9 | 2.6 | 0.00 | 0.00 | 0.00 | 81 | 1029.0 |
| 20260830121457 | 60 | 180 | 0.9 | 2.6 | 0.00 | 0.00 | 0.00 | 81 | 1029.0 |
| 20260830120954 | 60 | 180 | 0.9 | 2.6 | 0.00 | 0.00 | 0.00 | 81 | 1029.0 |
| 20260830120453 | 60 | 180 | 0.9 | 3.5 | 0.00 | 0.00 | 0.00 | 81 | 1029.0 |
| 20260830115950 | 61 | 180 | 1.7 | 4.3 | 0.00 | 0.00 | 0.00 | 81 | 1028.9 |
| 20260830115450 | 61 | 191 | 0.9 | 4.3 | 0.00 | 0.00 | 0.00 | 81 | 1029.0 |
| 20260830114950 | 61 | 138 | 0.9 | 5.2 | 0.00 | 0.00 | 0.00 | 81 | 1028.9 |
| 20260830114448 | 61 | 136 | 1.7 | 5.2 | 0.00 | 0.00 | 0.00 | 81 | 1028.9 |
| 20260830113947 | 61 | 120 | 1.7 | 4.3 | 0.00 | 0.00 | 0.00 | 81 | 1028.8 |
| 20260830113443 | 61 | 116 | 0.9 | 3.5 | 0.00 | 0.00 | 0.00 | 81 | 1028.9 |
| 20260830113205 | 61 | 114 | 0.9 | 4.3 | 0.00 | 0.00 | 0.00 | 81 | 1028.8 |
| 20260830112436 | 61 | 162 | 1.7 | 4.3 | 0.00 | 0.00 | 0.00 | 81 | 1028.9 |
| 20260830112413 | 62 | 155 | 1.7 | 5.2 | 0.00 | 0.00 | 0.00 | 81 | 1028.9 |
| 20260830111659 | 62 | 233 | 1.7 | 5.2 | 0.00 | 0.00 | 0.00 | 81 | 1028.9 |
| 20260830110934 | 62 | 138 | 1.7 | 4.3 | 0.00 | 0.00 | 0.00 | 80 | 1028.8 |
| 20260830110635 | 62 | 159 | 1.7 | 3.5 | 0.00 | 0.00 | 0.00 | 80 | 1028.8 |
| 20260830105916 | 62 | 146 | 1.7 | 4.3 | 0.00 | 0.00 | 0.00 | 80 | 1028.7 |
| 20260830105634 | 62 | 148 | 1.7 | 4.3 | 0.00 | 0.00 | 0.00 | 80 | 1028.7 |
| 20260830104912 | 62 | 131 | 1.7 | 4.3 | 0.00 | 0.00 | 0.00 | 80 | 1028.7 |
| 20260830104410 | 62 | 124 | 1.7 | 4.3 | 0.00 | 0.00 | 0.00 | 80 | 1028.6 |
| 20260830104121 | 63 | 129 | 1.7 | 4.3 | 0.00 | 0.00 | 0.00 | 80 | 1028.6 |
| 20260830103626 | 63 | 110 | 1.7 | 6.1 | 0.00 | 0.00 | 0.00 | 80 | 1028.6 |
| 20260830102900 | 63 | 112 | 1.7 | 6.1 | 0.00 | 0.00 | 0.00 | 79 | 1028.6 |
| 20260830102358 | 63 | 110 | 1.7 | 6.1 | 0.00 | 0.00 | 0.00 | 79 | 1028.6 |
| 20260830101858 | 63 | 95 | 1.7 | 4.3 | 0.00 | 0.00 | 0.00 | 78 | 1028.6 |
| 20260830101358 | 63 | 124 | 1.7 | 4.3 | 0.00 | 0.00 | 0.00 | 78 | 1028.6 |
| 20260830100855 | 63 | 123 | 1.7 | 6.1 | 0.00 | 0.00 | 0.00 | 77 | 1028.5 |
| 20260830100355 | 63 | 110 | 1.7 | 6.1 | 0.00 | 0.00 | 0.00 | 77 | 1028.4 |
| 20260830100121 | 64 | 116 | 1.7 | 3.5 | 0.00 | 0.00 | 0.00 | 76 | 1028.4 |
| 20260830095347 | 64 | 113 | 1.7 | 3.5 | 0.00 | 0.00 | 0.00 | 76 | 1028.3 |
| 20260830094846 | 64 | 121 | 1.7 | 4.3 | 0.00 | 0.00 | 0.00 | 75 | 1028.3 |
| 20260830094344 | 64 | 113 | 1.7 | 7.0 | 0.00 | 0.00 | 0.00 | 75 | 1028.3 |
| 20260830094108 | 64 | 113 | 1.7 | 7.0 | 0.00 | 0.00 | 0.00 | 74 | 1028.2 |
| 20260830093330 | 64 | 117 | 1.7 | 7.0 | 0.00 | 0.00 | 0.00 | 74 | 1028.2 |
| 20260830092830 | 64 | 112 | 2.6 | 7.0 | 0.00 | 0.00 | 0.00 | 74 | 1028.1 |
| 20260830092322 | 64 | 118 | 2.6 | 7.8 | 0.00 | 0.00 | 0.00 | 73 | 1028.1 |
| 20260830091820 | 64 | 175 | 2.6 | 7.8 | 0.00 | 0.00 | 0.00 | 73 | 1028.0 |
| 20260830091317 | 64 | 126 | 3.5 | 7.8 | 0.00 | 0.00 | 0.00 | 73 | 1027.9 |
| 20260830090818 | 64 | 99 | 2.6 | 7.8 | 0.00 | 0.00 | 0.00 | 73 | 1027.9 |
| 20260830090315 | 64 | 142 | 2.6 | 8.7 | 0.00 | 0.00 | 0.00 | 73 | 1027.9 |
| 20260830085815 | 65 | 120 | 2.6 | 8.7 | 0.00 | 0.00 | 0.00 | 72 | 1027.8 |
| 20260830085538 | 65 | 175 | 3.5 | 9.6 | 0.00 | 0.00 | 0.00 | 72 | 1027.7 |
| 20260830084814 | 65 | 134 | 3.5 | 9.6 | 0.00 | 0.00 | 0.00 | 72 | 1027.6 |
| 20260830084310 | 65 | 129 | 3.5 | 11.3 | 0.00 | 0.00 | 0.00 | 72 | 1027.6 |
| 20260830084028 | 65 | 108 | 3.5 | 11.3 | 0.00 | 0.00 | 0.00 | 72 | 1027.6 |
| 20260830083528 | 65 | 119 | 3.5 | 8.7 | 0.00 | 0.00 | 0.00 | 71 | 1027.5 |
| 20260830082820 | 65 | 66 | 3.5 | 8.7 | 0.00 | 0.00 | 0.00 | 71 | 1027.5 |
| 20260830082240 | 65 | 112 | 3.5 | 10.4 | 0.00 | 0.00 | 0.00 | 71 | 1027.5 |
| 20260830081715 | 65 | 112 | 3.5 | 8.7 | 0.00 | 0.00 | 0.00 | 70 | 1027.4 |
| 20260830081644 | 65 | 139 | 3.5 | 8.7 | 0.00 | 0.00 | 0.00 | 70 | 1027.4 |
| 20260830080704 | 65 | 125 | 3.5 | 8.7 | 0.00 | 0.00 | 0.00 | 70 | 1027.3 |
| 20260830080420 | 65 | 122 | 3.5 | 8.7 | 0.00 | 0.00 | 0.00 | 70 | 1027.2 |
| 20260830075705 | 65 | 131 | 3.5 | 8.7 | 0.00 | 0.00 | 0.00 | 69 | 1027.2 |
| 20260830075159 | 66 | 141 | 3.5 | 10.4 | 0.00 | 0.00 | 0.00 | 69 | 1027.1 |
| 20260830074929 | 66 | 136 | 4.3 | 10.4 | 0.00 | 0.00 | 0.00 | 68 | 1027.0 |
| 20260830074200 | 66 | 112 | 4.3 | 10.4 | 0.00 | 0.00 | 0.00 | 68 | 1026.9 |
| 20260830073704 | 66 | 119 | 2.6 | 9.6 | 0.00 | 0.00 | 0.00 | 68 | 1026.9 |
| 20260830073200 | 66 | 124 | 2.6 | 9.6 | 0.00 | 0.00 | 0.00 | 67 | 1026.8 |
| 20260830072702 | 66 | 115 | 3.5 | 9.6 | 0.00 | 0.00 | 0.00 | 66 | 1026.8 |
| 20260830072158 | 67 | 122 | 4.3 | 13.0 | 0.00 | 0.00 | 0.00 | 66 | 1026.8 |
| 20260830071658 | 67 | 120 | 4.3 | 13.0 | 0.00 | 0.00 | 0.00 | 65 | 1026.8 |
| 20260830071419 | 67 | 162 | 4.3 | 13.0 | 0.00 | 0.00 | 0.00 | 65 | 1026.7 |
| 20260830071140 | 67 | 114 | 6.1 | 14.8 | 0.00 | 0.00 | 0.00 | 65 | 1026.7 |
| 20260830070132 | 67 | 110 | 5.2 | 13.9 | 0.00 | 0.00 | 0.00 | 64 | 1026.6 |
| 20260830065608 | 67 | 110 | 3.5 | 10.4 | 0.00 | 0.00 | 0.00 | 64 | 1026.6 |
| 20260830065038 | 68 | 126 | 3.5 | 10.4 | 0.00 | 0.00 | 0.00 | 64 | 1026.6 |
| 20260830064747 | 68 | 122 | 4.3 | 9.6 | 0.00 | 0.00 | 0.00 | 64 | 1026.6 |
| 20260830064023 | 68 | 140 | 4.3 | 9.6 | 0.00 | 0.00 | 0.00 | 63 | 1026.5 |
| 20260830063718 | 68 | 118 | 3.5 | 9.6 | 0.00 | 0.00 | 0.00 | 64 | 1026.5 |
| 20260830063421 | 68 | 97 | 3.5 | 10.4 | 0.00 | 0.00 | 0.00 | 64 | 1026.4 |
| 20260830062403 | 69 | 119 | 5.2 | 10.4 | 0.00 | 0.00 | 0.00 | 65 | 1026.4 |
| 20260830062112 | 69 | 131 | 7.0 | 14.8 | 0.00 | 0.00 | 0.00 | 65 | 1026.5 |
| 20260830061348 | 69 | 106 | 6.1 | 13.9 | 0.00 | 0.00 | 0.00 | 65 | 1026.3 |
| 20260830060824 | 69 | 149 | 4.3 | 11.3 | 0.00 | 0.00 | 0.00 | 65 | 1026.4 |
| 20260830060255 | 70 | 139 | 4.3 | 12.2 | 0.00 | 0.00 | 0.00 | 65 | 1026.4 |
| 20260830055730 | 70 | 109 | 4.3 | 13.0 | 0.00 | 0.00 | 0.00 | 65 | 1026.4 |
| 20260830055201 | 70 | 120 | 5.2 | 12.2 | 0.00 | 0.00 | 0.00 | 65 | 1026.3 |
| 20260830054635 | 70 | 126 | 7.0 | 13.9 | 0.00 | 0.00 | 0.00 | 64 | 1026.3 |
| 20260830054106 | 70 | 72 | 7.0 | 15.6 | 0.00 | 0.00 | 0.00 | 63 | 1026.3 |
| 20260830053539 | 71 | 115 | 6.1 | 15.6 | 0.00 | 0.00 | 0.00 | 62 | 1026.3 |